• In Lithuania
  • List of Countries
  • For 7 days
  • Water Temperature
  • Satellite Maps
  • Weather Map
  • Weather Widgets
  • user-avatar
    Login

    Hourly Weather Chongaj

    Today, 21 February, Wednesday

    Time Temperature Precipitation Wind Pressure Humidity
    00:00 +27°C° 0 mm 0 mps 737 mmHg 61%
    01:00 +26°C° 0 mm 0 mps 737 mmHg 61%
    02:00 +28°C° 0 mm 1 mps 737 mmHg 62%
    03:00 +27°C° 0 mm 1 mps 737 mmHg 62%
    04:00 +27°C° 0 mm 1 mps 737 mmHg 63%
    05:00 +27°C° 0 mm 1 mps 737 mmHg 63%
    06:00 +26°C° 0 mm 1 mps 737 mmHg 63%
    07:00 +26°C° 0 mm 2 mps 738 mmHg 63%
    08:00 +28°C° 0 mm 2 mps 738 mmHg 57%
    09:00 +31°C° 0 mm 2 mps 738 mmHg 50%
    10:00 +34°C° 0 mm 2 mps 739 mmHg 44%
    11:00 +36°C° 0 mm 1 mps 738 mmHg 39%
    12:00 +39°C° 0 mm 1 mps 737 mmHg 34%
    13:00 +38°C° 0 mm 0 mps 737 mmHg 29%
    14:00 +38°C° 0 mm 0 mps 736 mmHg 29%
    15:00 +37°C° 0 mm 0 mps 736 mmHg 29%
    16:00 +36°C° 0 mm 0 mps 735 mmHg 29%
    17:00 +37°C° 0 mm 1 mps 735 mmHg 32%
    18:00 +35°C° 0 mm 1 mps 735 mmHg 35%
    19:00 +34°C° 0 mm 1 mps 735 mmHg 38%
    20:00 +33°C° 0 mm 1 mps 735 mmHg 40%
    21:00 +32°C° 0 mm 1 mps 736 mmHg 43%
    22:00 +31°C° 0 mm 1 mps 736 mmHg 46%
    23:00 +31°C° 0.1 mm 1 mps 736 mmHg 49%

    Tomorrow, 22 February, Thursday

    Time Temperature Precipitation Wind Pressure Humidity
    00:00 +30°C° 0.1 mm 1 mps 736 mmHg 52%
    01:00 +29°C° 0.1 mm 1 mps 737 mmHg 55%
    02:00 +29°C° 0.4 mm 1 mps 736 mmHg 58%
    03:00 +28°C° 0.4 mm 1 mps 736 mmHg 61%
    04:00 +28°C° 0.4 mm 1 mps 736 mmHg 63%
    05:00 +28°C° 0 mm 1 mps 737 mmHg 63%
    06:00 +27°C° 0 mm 2 mps 737 mmHg 64%
    07:00 +27°C° 0 mm 2 mps 738 mmHg 64%
    08:00 +29°C° 0 mm 2 mps 738 mmHg 58%
    09:00 +31°C° 0 mm 2 mps 738 mmHg 53%
    10:00 +34°C° 0 mm 3 mps 739 mmHg 47%
    11:00 +36°C° 0 mm 2 mps 738 mmHg 44%
    12:00 +36°C° 0 mm 1 mps 737 mmHg 40%
    13:00 +37°C° 0 mm 1 mps 737 mmHg 37%
    14:00 +37°C° 0 mm 1 mps 736 mmHg 37%
    15:00 +35°C° 0 mm 0 mps 735 mmHg 37%
    16:00 +34°C° 0 mm 0 mps 734 mmHg 37%
    17:00 +33°C° 0 mm 0 mps 735 mmHg 39%
    18:00 +32°C° 0 mm 0 mps 735 mmHg 42%
    19:00 +30°C° 0 mm 0 mps 736 mmHg 45%
    20:00 +32°C° 0 mm 1 mps 736 mmHg 47%
    21:00 +31°C° 0 mm 1 mps 737 mmHg 49%
    22:00 +31°C° 0 mm 1 mps 738 mmHg 51%
    23:00 +30°C° 0.6 mm 1 mps 738 mmHg 57%

    Day after tomorrow, 23 February, Friday

    Time Temperature Precipitation Wind Pressure Humidity
    00:00 +29°C° 0.6 mm 1 mps 738 mmHg 62%
    01:00 +28°C° 0.6 mm 2 mps 738 mmHg 68%
    02:00 +27°C° 0 mm 1 mps 738 mmHg 70%
    03:00 +27°C° 0 mm 1 mps 738 mmHg 71%
    04:00 +27°C° 0 mm 1 mps 737 mmHg 73%
    05:00 +27°C° 0 mm 1 mps 738 mmHg 73%
    06:00 +26°C° 0 mm 1 mps 738 mmHg 73%
    07:00 +26°C° 0 mm 1 mps 739 mmHg 73%
    08:00 +28°C° 0 mm 2 mps 739 mmHg 64%
    09:00 +30°C° 0 mm 2 mps 740 mmHg 56%
    10:00 +33°C° 0 mm 3 mps 740 mmHg 47%
    11:00 +35°C° 0 mm 2 mps 740 mmHg 43%
    12:00 +36°C° 0 mm 2 mps 739 mmHg 38%
    13:00 +38°C° 0 mm 2 mps 738 mmHg 34%
    14:00 +37°C° 0 mm 2 mps 737 mmHg 35%
    15:00 +37°C° 0 mm 2 mps 736 mmHg 35%
    16:00 +36°C° 0 mm 2 mps 735 mmHg 36%
    17:00 +35°C° 0 mm 2 mps 736 mmHg 40%
    18:00 +34°C° 0 mm 2 mps 737 mmHg 43%
    19:00 +32°C° 0 mm 2 mps 737 mmHg 47%
    20:00 +31°C° 0.2 mm 2 mps 738 mmHg 51%
    21:00 +30°C° 0.2 mm 2 mps 738 mmHg 55%
    22:00 +29°C° 0.2 mm 2 mps 739 mmHg 59%
    23:00 +28°C° 0.4 mm 1 mps 739 mmHg 63%

    24 February, Saturday

    Time Temperature Precipitation Wind Pressure Humidity
    00:00 +28°C° 0.4 mm 1 mps 739 mmHg 67%
    01:00 +27°C° 0.4 mm 1 mps 739 mmHg 72%
    02:00 +27°C° 0 mm 1 mps 739 mmHg 71%
    03:00 +27°C° 0 mm 1 mps 739 mmHg 71%
    04:00 +26°C° 0 mm 1 mps 739 mmHg 71%
    05:00 +26°C° 0.2 mm 1 mps 739 mmHg 70%
    06:00 +26°C° 0.2 mm 1 mps 740 mmHg 69%
    07:00 +26°C° 0.2 mm 1 mps 740 mmHg 68%
    08:00 +28°C° 0.2 mm 2 mps 741 mmHg 61%
    09:00 +30°C° 0.2 mm 2 mps 741 mmHg 53%
    10:00 +32°C° 0.2 mm 2 mps 742 mmHg 46%
    11:00 +35°C° 0 mm 2 mps 741 mmHg 41%
    12:00 +37°C° 0 mm 2 mps 740 mmHg 35%
    13:00 +39°C° 0 mm 1 mps 739 mmHg 30%
    14:00 +39°C° 0 mm 1 mps 738 mmHg 29%
    15:00 +39°C° 0 mm 1 mps 738 mmHg 29%
    16:00 +39°C° 0 mm 1 mps 737 mmHg 28%
    17:00 +37°C° 0 mm 2 mps 737 mmHg 32%
    18:00 +35°C° 0 mm 2 mps 737 mmHg 36%
    19:00 +34°C° 0 mm 2 mps 738 mmHg 40%
    20:00 +32°C° 0.1 mm 2 mps 738 mmHg 45%
    21:00 +31°C° 0.1 mm 2 mps 738 mmHg 49%
    22:00 +30°C° 0.1 mm 2 mps 739 mmHg 53%
    23:00 +29°C° 0 mm 1 mps 739 mmHg 55%

    25 February, Sunday

    Time Temperature Precipitation Wind Pressure Humidity
    00:00 +29°C° 0 mm 1 mps 738 mmHg 57%
    01:00 +28°C° 0 mm 1 mps 738 mmHg 58%
    02:00 +28°C° 0 mm 1 mps 738 mmHg 59%
    03:00 +28°C° 0 mm 1 mps 738 mmHg 61%
    04:00 +27°C° 0 mm 1 mps 738 mmHg 62%
    05:00 +27°C° 0 mm 1 mps 739 mmHg 61%
    06:00 +27°C° 0 mm 2 mps 739 mmHg 61%
    07:00 +27°C° 0 mm 2 mps 740 mmHg 61%
    08:00 +29°C° 0 mm 2 mps 740 mmHg 54%
    09:00 +31°C° 0 mm 2 mps 740 mmHg 46%
    10:00 +35°C° 0 mm 3 mps 740 mmHg 39%
    11:00 +36°C° 0 mm 2 mps 739 mmHg 35%
    12:00 +37°C° 0 mm 1 mps 738 mmHg 31%
    13:00 +40°C° 0 mm 1 mps 737 mmHg 28%
    14:00 +40°C° 0 mm 1 mps 737 mmHg 27%
    15:00 +40°C° 0 mm 1 mps 736 mmHg 27%
    16:00 +39°C° 0 mm 1 mps 736 mmHg 27%
    17:00 +37°C° 0 mm 1 mps 736 mmHg 31%
    18:00 +35°C° 0 mm 1 mps 736 mmHg 34%
    19:00 +33°C° 0 mm 1 mps 736 mmHg 38%
    20:00 +33°C° 0 mm 1 mps 737 mmHg 40%
    21:00 +32°C° 0 mm 1 mps 737 mmHg 42%
    22:00 +31°C° 0 mm 1 mps 737 mmHg 44%
    23:00 +30°C° 0 mm 2 mps 737 mmHg 47%

    26 February, Monday

    Time Temperature Precipitation Wind Pressure Humidity
    00:00 +30°C° 0 mm 2 mps 737 mmHg 51%
    01:00 +29°C° 0 mm 2 mps 737 mmHg 54%
    02:00 +28°C° 0 mm 2 mps 737 mmHg 56%
    03:00 +28°C° 0 mm 2 mps 737 mmHg 58%
    04:00 +28°C° 0 mm 2 mps 738 mmHg 61%
    05:00 +27°C° 0 mm 2 mps 738 mmHg 61%
    06:00 +27°C° 0 mm 2 mps 738 mmHg 61%
    07:00 +27°C° 0 mm 2 mps 739 mmHg 61%
    08:00 +29°C° 0 mm 2 mps 739 mmHg 54%
    09:00 +31°C° 0 mm 2 mps 739 mmHg 47%
    10:00 +34°C° 0 mm 2 mps 740 mmHg 40%
    11:00 +36°C° 0 mm 2 mps 739 mmHg 36%
    12:00 +38°C° 0 mm 2 mps 738 mmHg 32%
    13:00 +40°C° 0 mm 1 mps 737 mmHg 28%
    14:00 +40°C° 0 mm 2 mps 736 mmHg 27%
    15:00 +40°C° 0 mm 2 mps 736 mmHg 27%
    16:00 +40°C° 0 mm 2 mps 735 mmHg 26%
    17:00 +38°C° 0 mm 2 mps 735 mmHg 29%
    18:00 +36°C° 0 mm 2 mps 735 mmHg 32%
    19:00 +33°C° 0 mm 1 mps 736 mmHg 35%
    20:00 +34°C° 0 mm 2 mps 736 mmHg 38%
    21:00 +32°C° 0 mm 2 mps 737 mmHg 41%
    22:00 +31°C° 0 mm 2 mps 737 mmHg 44%
    23:00 +30°C° 0 mm 2 mps 737 mmHg 47%
    Show more